Location: Colonia Mina de C?rbuni
(46.1667°N, 22.7167°E)
Time: 06:27:58
(UTC+00:00)

Courier 1B - Pass Details

Date: 25 April 2024
Orbit: 962 x 1208 km, 28.3° (Epoch: 26 May)

Event Time Altitude Azimuth Distance (km) Brightness Sun altitude
Rises 01:59:48 0° 248° (WSW) 4,000 - -13.8°
Reaches altitude 10° 02:04:05 10° 226° (SW) 2,986 - -13.2°
Exits shadow 02:06:05 14° 211° (SSW) 2,696 9.3 -12.9°
Maximum altitude 02:07:52 15° 195° (SSW) 2,590 9.3 -12.6°
Drops below altitude 10° 02:11:32 10° 163° (SSE) 2,886 9.8 -12.1°
Sets 02:15:34 0° 141° (SE) 3,785 10.7 -11.5°
